DateTimeUTC,F1_A11,F1_S11,BsB_S11,BsG_S11,BsR_S11,BbsB_S11,BbsG_S11,BbsR_S11,BaB_A11,BaG_A11,BaR_A11,Tu_S11,T_S11,Uu_S11,U_S11,P_S11,T1_A11
2021-06-28T11:00:00Z,00000200,20000000,,,,,,,-000.14,-000.23,0000.18,18.7,25.3,08.2,05.5,0669.5,31.1
2021-06-28T11:01:00Z,00000200,20000000,,,,,,,0000.14,0000.31,-000.01,18.7,25.4,08.3,05.5,0669.5,31.1
2021-06-28T11:02:00Z,00000200,20000000,,,,,,,-000.46,-000.34,-000.10,18.6,25.4,08.3,05.5,0669.5,31.2
2021-06-28T11:03:00Z,00000200,60000000,,,,,,,0000.54,0000.39,0000.04,18.6,25.4,08.3,05.5,0669.5,31.1
2021-06-28T11:04:00Z,00000200,40000000,0001.13,0000.93,0000.55,0000.07,0000.13,0000.18,0000.01,0000.14,0000.29,18.7,25.2,08.3,05.6,0670.4,31.1
2021-06-28T11:05:00Z,00000200,00000000,0001.53,0000.67,0000.53,0000.06,0000.03,0000.28,0000.00,-000.09,-000.12,18.8,25.1,08.3,05.6,0670.4,31.1
2021-06-28T11:06:00Z,00000200,00000000,0000.09,0000.47,0000.40,-000.16,0000.09,0000.12,0000.24,0000.23,0000.31,18.8,25.1,08.3,05.7,0670.4,31.1
2021-06-28T11:07:00Z,00000200,00000000,0000.73,0000.43,0000.29,0000.31,0000.13,0000.36,-000.04,-000.07,0000.25,18.8,25.1,08.3,05.7,0670.5,31.2
2021-06-28T11:08:00Z,00000200,00000000,0000.47,0000.48,0000.43,-000.11,-000.02,0000.42,0000.33,0000.14,0000.15,18.8,25.1,08.4,05.7,0670.5,31.1
2021-06-28T11:09:00Z,00000200,00000000,0000.72,0000.63,0000.53,0000.16,-000.11,0000.50,0000.29,0000.24,-000.02,18.8,25.1,08.4,05.7,0670.5,31.1
2021-06-28T11:10:00Z,00000200,00000000,0001.65,0000.73,0000.38,-000.01,0000.04,0000.38,0000.06,0000.00,-000.01,18.8,25.1,08.4,05.7,0670.4,31.1
2021-06-28T11:11:00Z,00000200,00000000,0000.61,0000.44,0000.61,-000.24,0000.27,0000.24,-000.05,-000.10,0000.07,18.8,25.1,08.6,05.8,0670.4,31.1
2021-06-28T11:12:00Z,00000200,00000000,0000.48,0000.52,0000.35,-000.15,0000.34,0000.17,0000.13,0000.53,0000.35,18.8,25.1,08.6,05.8,0670.4,31.1
2021-06-28T11:13:00Z,00000200,00000000,0000.60,0000.86,0000.52,0000.08,0000.22,0000.29,0000.35,0000.08,-000.36,18.8,25.0,08.7,05.9,0670.4,31.2
2021-06-28T11:14:00Z,00000200,00000000,0000.94,0000.55,0000.86,-000.43,0000.23,0000.41,-000.10,-000.21,0000.21,18.8,25.0,08.5,05.8,0670.4,31.1
2021-06-28T11:15:00Z,00000200,00000000,0000.30,0000.57,0000.47,0000.03,0000.16,0000.10,0000.16,0000.39,0000.28,18.8,25.0,08.6,05.8,0670.4,31.1
2021-06-28T11:16:00Z,00000200,00000000,0000.81,0000.76,0000.54,-000.16,0000.14,0000.10,0000.23,0000.18,-000.06,18.8,25.0,08.7,05.9,0670.4,31.1
2021-06-28T11:17:00Z,00000200,00000000,0000.37,0000.62,0000.48,0000.06,0000.25,0000.30,0000.23,0000.02,0000.70,18.8,25.0,08.5,05.8,0670.4,31.1
2021-06-28T11:18:00Z,00000200,00000000,0000.45,0000.84,0000.31,0000.30,0000.08,0000.02,0000.23,0000.04,-000.49,18.9,25.1,08.6,05.9,0670.5,31.2
2021-06-28T11:19:00Z,00000200,00000000,0000.77,0000.55,0000.48,-000.50,0000.17,0000.22,-000.27,0000.05,0000.30,18.9,25.1,08.5,05.9,0670.4,31.2
2021-06-28T11:20:00Z,00000200,00000000,0001.27,0000.14,0000.51,0000.02,0000.25,0000.47,0000.51,0000.03,0000.25,18.9,25.1,08.6,05.9,0670.4,31.2
2021-06-28T11:21:00Z,00000200,00000000,0000.89,0000.24,0000.70,-000.05,0000.14,0000.40,-000.18,0000.23,-000.53,19.0,25.1,08.6,05.9,0670.4,31.1
2021-06-28T11:22:00Z,00000200,00000000,0000.97,0000.61,0000.41,-000.25,0000.08,0000.28,0000.38,0000.07,0000.36,19.0,25.1,08.4,05.8,0670.4,31.1
2021-06-28T11:23:00Z,00000200,00000000,0001.20,0000.69,0000.57,0000.68,0000.01,0000.46,-000.48,0000.14,-000.08,19.0,25.1,08.5,05.8,0670.4,31.2
2021-06-28T11:24:00Z,00000200,00000000,0000.82,0000.30,0000.39,-000.08,0000.30,0000.25,0000.78,0000.46,0000.32,19.0,25.1,08.5,05.8,0670.3,31.1
2021-06-28T11:25:00Z,00000200,00000000,0000.60,0000.49,0000.69,0000.00,0000.30,0000.49,-000.34,-000.24,-000.26,19.0,25.1,08.5,05.9,0670.3,31.2
2021-06-28T11:26:00Z,00000200,00000000,0000.62,0000.61,0000.62,0000.15,0000.13,0000.33,0000.16,0000.01,0000.20,19.0,25.1,08.5,05.8,0670.3,31.2
2021-06-28T11:27:00Z,00000200,00000000,0000.51,0000.23,0000.60,-000.24,0000.12,0000.43,0000.24,0000.09,-000.03,19.0,25.1,08.5,05.8,0670.3,31.1
2021-06-28T11:28:00Z,00000200,00000000,0000.70,0000.73,0000.67,0000.33,0000.02,0000.33,0000.39,0000.21,0000.36,19.0,25.1,08.5,05.8,0670.3,31.1
2021-06-28T11:29:00Z,00000200,00000000,0001.08,0000.52,0000.40,-000.05,0000.47,0000.30,-000.11,-000.02,0000.06,19.0,25.1,08.5,05.9,0670.3,31.2
2021-06-28T11:30:00Z,00000200,00000000,0000.75,0000.34,0000.39,-000.09,0000.10,0000.08,-000.02,0000.37,-000.06,19.0,25.1,08.5,05.9,0670.3,31.2
2021-06-28T11:31:00Z,00000200,00000000,0000.68,0000.68,0000.58,0000.21,0000.13,0000.29,0000.29,-000.04,0000.26,18.9,25.1,08.6,05.9,0670.3,31.2
2021-06-28T11:32:00Z,00000200,00000000,0000.17,0000.77,0000.32,-000.06,-000.07,0000.46,0000.15,0000.33,0000.34,18.9,25.1,08.5,05.9,0670.3,31.2
2021-06-28T11:33:00Z,00000200,00000000,0000.54,0000.62,0000.34,-000.05,0000.20,0000.03,0000.19,-000.04,-000.24,19.0,25.1,08.5,05.9,0670.3,31.2
2021-06-28T11:34:00Z,00000200,00000000,0000.47,0000.70,0000.34,0000.19,0000.07,-000.02,0000.10,0000.03,0000.17,18.9,25.1,08.8,06.0,0670.3,31.1
2021-06-28T11:35:00Z,00000200,00000000,0000.81,0000.31,0000.68,-000.16,-000.00,0000.70,0000.03,0000.32,0000.13,18.9,25.1,08.7,06.0,0670.3,31.2
2021-06-28T11:36:00Z,00000200,00000000,0000.35,0000.80,0000.43,-000.11,0000.04,0000.34,0000.11,0000.07,0000.41,18.9,25.1,08.8,06.0,0670.3,31.2
2021-06-28T11:37:00Z,00000200,00000000,0001.38,0000.31,0000.37,0000.13,0000.21,0000.26,0000.16,-000.13,-000.54,18.9,25.1,08.8,06.1,0670.3,31.1
2021-06-28T11:38:00Z,00000200,00000000,0000.61,0000.57,0000.51,-000.18,0000.21,0000.37,0000.07,0000.17,0000.20,18.9,25.1,08.9,06.1,0670.3,31.1
2021-06-28T11:39:00Z,00000200,00000000,0000.90,0000.74,0000.35,-000.64,0000.21,0000.08,0000.02,0000.28,0000.07,18.9,25.1,09.0,06.2,0670.3,31.2
2021-06-28T11:40:00Z,00000200,00000000,0000.37,0000.54,0000.56,-000.14,0000.07,0000.35,0000.35,0000.22,0000.28,18.9,25.1,09.1,06.2,0670.2,31.2
2021-06-28T11:41:00Z,00000200,00000000,0001.05,0000.50,0000.26,0000.07,0000.07,0000.32,0000.16,-000.28,0000.02,18.9,25.1,09.0,06.1,0670.2,31.1
2021-06-28T11:42:00Z,00000200,00000000,0000.24,0000.66,0000.23,0000.64,-000.01,0000.09,0000.02,0000.46,-000.07,18.9,25.1,09.1,06.3,0670.3,31.1
2021-06-28T11:43:00Z,00000200,00000000,0001.47,0000.58,0000.32,0000.41,0000.12,0000.23,0000.25,0000.26,0000.33,18.9,25.1,09.1,06.2,0670.2,31.1
2021-06-28T11:44:00Z,00000200,00000000,0000.38,0000.37,0000.55,-000.65,-000.01,0000.45,0000.10,-000.16,0000.22,18.9,25.1,09.1,06.2,0670.2,31.2
2021-06-28T11:45:00Z,00000200,00000000,0001.29,0000.70,0000.50,0000.01,-000.12,0000.24,0000.30,0000.59,-000.02,18.9,25.1,09.2,06.3,0670.2,31.1
2021-06-28T11:46:00Z,00000200,00000000,0000.85,0000.52,0000.53,-000.09,-000.01,0000.26,0000.09,-000.28,0000.10,18.9,25.1,09.1,06.3,0670.2,31.2
2021-06-28T11:47:00Z,00000200,00000000,0000.92,0000.36,0000.42,0000.25,-000.04,0000.40,-000.02,0000.22,0000.09,18.9,25.1,09.2,06.3,0670.1,31.2
2021-06-28T11:48:00Z,00000200,00000000,0001.59,0000.75,0000.30,0000.18,-000.02,0000.13,-000.02,0000.15,0000.09,18.9,25.1,09.2,06.3,0670.1,31.1
2021-06-28T11:49:00Z,00000200,00000000,0000.56,0000.57,0000.28,-000.39,-000.03,0000.39,0000.29,0000.01,0000.07,18.9,25.1,09.2,06.3,0670.2,31.2
2021-06-28T11:50:00Z,00000200,00000000,0000.37,0000.69,0000.26,-000.09,0000.04,0000.17,-000.07,0000.29,-000.12,18.9,25.1,09.2,06.3,0670.2,31.2
2021-06-28T11:51:00Z,00000200,00000000,0000.62,0000.68,0000.39,-000.36,0000.23,0000.11,0000.45,-000.16,0000.20,18.9,25.1,09.2,06.3,0670.1,31.2
2021-06-28T11:52:00Z,00000200,00000000,0000.74,0000.52,0000.53,-000.03,0000.20,0000.34,0000.03,-000.12,0000.05,18.9,25.1,09.2,06.3,0670.1,31.2
2021-06-28T11:53:00Z,00000200,00000000,0000.93,0000.53,0000.39,-000.83,0000.18,0000.29,-000.06,0000.40,0000.33,18.9,25.1,09.2,06.3,0670.1,31.2
2021-06-28T11:54:00Z,00000200,00000000,0001.10,0000.58,0000.73,-000.02,0000.30,0000.25,0000.35,0000.21,-000.11,18.9,25.1,09.3,06.4,0670.1,31.1
2021-06-28T11:55:00Z,00000200,00000000,0001.22,0000.25,0000.39,0000.36,0000.14,0000.28,-000.02,0000.05,0000.25,18.9,25.1,09.3,06.4,0670.1,31.2
2021-06-28T11:56:00Z,00000200,00000000,0000.87,0000.75,0000.25,-000.14,0000.05,0000.26,0000.11,-000.05,-000.06,18.9,25.1,09.4,06.4,0670.1,31.2
2021-06-28T11:57:00Z,00000200,40000000,,,,,,,0000.10,0000.13,-000.01,18.9,25.1,09.5,06.5,0670.1,31.1
2021-06-28T11:58:00Z,00000200,60000000,,,,,,,0000.01,0000.08,-000.08,18.7,25.2,09.2,06.2,0669.2,31.1
2021-06-28T11:59:00Z,00000200,20000000,,,,,,,-000.11,-000.09,-000.21,18.7,25.3,09.1,06.1,0669.1,31.2
